STARLINK-5183, 54084

Orbit data source: Space-Track

STARLINK-5183, 54084 is a payload satellite owned by SpaceX/Seattle (US) in LEO that was launched on Thu, 20 Oct 2022 UTC via an FALCON 9 launch vehicle from the Air Force Eastern Test Range (AFETR). Payload-class satellites include a variety of spacecraft equipped with specific instruments for various scientific and technological missions. These include communications satellites like Starlink; space stations such as the ISS; scientific satellites like the Hubble; Earth observation satellites from companies like Planet Labs, Umbra, and HawkEye 360; GPS; miniature CubeSats for education and research; and military/defense satellites.

Loading next visibility...
Identifier
54084, 2022-136AK
Orbit
LEO
Last TLE update
14 hours ago
Origin
Manufacturer
SpaceX/Seattle
Mission
Operational Commercial Communications
Bus & Motor
STARLINK, Unknown motor
Mass
305 kg wet, ~290 kg dry
Launch date (UTC)
2022-10-20 (3 years ago)
Launch vehicle
FALCON 9
Launch site
Air Force Eastern Test Range (AFETR)
Object type
Payload
Rocket body
Debris
Shape & HBR
Box + 1 Pan, 8.86 m
Radar Cross Section
13.562 m², Large (>1 m²)

Expand to show TLE details & history

TLE from 14 hours ago
0 STARLINK-5183
1 54084U 22136AK  25181.85569484  .00000087  00000-0  23542-4 0  9996
2 54084  53.2184  24.7914 0001859  95.8522 264.2682 15.08835609148960
Epoch: 2025-06-30T20:32Z
TLE epoch observation values (Epoch: 2025-06-30T20:32:12.034Z)
Latitude
-0.00002°
Longitude
157.58174°
Altitude
540.783 km
Speed
7.593 km/s
True Right ascension
01h 39m 09s
True Declination
0° 00' 00"
Sunlit
Object was in daylight at epoch
Visualization orbit readout
Latitude
-35.07071°
Longitude
123.47785°
Altitude
551.945 km
Speed
7.585 km/s
Apparent Right ascension
03h 01m 44s
Apparent Declination
-78° 04' 40"
Sunlit
Object is in full shadow
Visualization observer readout
Local Sidereal Time
22:17:03
Azimuth
166.153° S
Elevation
-35.218°
Doppler factor
1
Orbital elements
Apogee altitude
541.288 km
Perigee altitude
538.716 km
Semi-major axis
6,918.139 km
Eccentricity
0.00019
Inclination
53.2184°
RAAN
24.7914°
Arg. of periapsis
95.8522°
True anomaly
Unknown
Mean anomaly
264.2682°
Eccentric anomaly
Unknown
Mean motion
3.77189 °/min
Orbital period
95.44 mins
BSTAR
0.000023542
Loading maneuver chart data...
Loading SW <> Apogee altitude chart data...
Loading historical data...
Loading historical data...
Loading historical data...
Loading historical data...
Loading historical data...
Loading historical data...
Loading historical data...

STARLINK-5183 Visibility forecast

Observer location: undefined°, undefined°

Span
Click to sort rows by Start time (UTC) header in descending order
Start Az.
Max El. time (UTC)
Max El. Az.
Max El.
End time (UTC)
End Az.
7 mins2025-07-01 15:46:34.693Z206.23° SW2025-07-01 15:49:34.693Z145.32° SSE36.747°2025-07-01 15:53:34.693Z60.137° ENE
5 mins2025-07-01 17:27:34.693Z292.024° WNW2025-07-01 17:29:34.693Z340.884° N25.257°2025-07-01 17:32:34.693Z31.458° NE
5 mins2025-07-01 22:28:34.693Z332.579° NNW2025-07-01 22:30:34.693Z35.732° NE36.724°2025-07-01 22:33:34.693Z105.989° ESE
5 mins2025-07-02 00:07:34.693Z271.905° WNW2025-07-02 00:09:34.693Z233.151° WSW21.58°2025-07-02 00:12:34.693Z180.632° SSW
|